User: anonymous   Login
Location: Unspecified
(0.0000°N, 0.0000°E)
Time: 17:01:10
(UTC+00:00)
Language:

FORMOSAT 3A - Orbit

View from above orbital plane
View from above orbital plane
View from above satellite
View from above satellite

Ground track
Ground track

The orbit data is extracted from the following two-line orbital elements,

1 29047U 06011A   17265.51837133  .00000047  00000-0  34660-4 0  9996
2 29047  71.9814 348.5878 0051361 342.3904  17.5449 14.28597962598665
Epoch (UTC): 22 September 2017 12:26:27
Eccentricity: 0.0051361
inclination: 71.9814°
perigee height: 759 km
apogee height: 833 km
right ascension of ascending node: 348.5878°
argument of perigee: 342.3904°
revolutions per day: 14.28597962
mean anomaly at epoch: 17.5449°
orbit number at epoch: 59866

The dashed part of the orbit path shows where the satellite is in the earth's shadow,  

DLR